Park Rapids, MN

7:11 AM CDT on July 28, 2017 (GMT -0500)
Park Rapids Municipal

Weather History for KPKD - January, 2014

Change the Weather History Date:

Friday, January 3, 2014

  Actual Average Record
Temperature  
Mean Temperature 5 °F -  
Max Temperature 21 °F 16 °F 44 °F (1962)
Min Temperature -11 °F -5 °F -35 °F (2010)
Degree Days  
Heating Degree Days 60    
Moisture  
Dew Point 5 °F    
Average Humidity 83    
Maximum Humidity 92    
Minimum Humidity 69    
Precipitation  
Precipitation 0.02 in - - ()
Sea Level Pressure  
Sea Level Pressure 29.60 in    
Wind  
Wind Speed 14 mph (South)    
Max Wind Speed 21 mph    
Max Gust Speed 29 mph    
Visibility 6 miles    
Events Snow    
Averages and records for this station are not official NWS values.
T = Trace of Precipitation, MM = Missing Value Source: NWS Daily Summary

Daily Weather History Graph

Daily Weather History Graph

Search for Another Location

Airport or City:

Trip Planner

Search our weather history database for the weather conditions in past years. The results will help you decide how hot, cold, wet, or windy it might be!

Date:

Astronomy

Jan. 03, 2014 Rise Set
Actual Time 8:05 AM CST 4:44 PM CST
Civil Twilight 7:30 AM CST 5:19 PM CST
Nautical Twilight 6:52 AM CST 5:57 PM CST
Astronomical Twilight 6:15 AM CST 6:34 PM CST
Moon 9:20 AM CST (1/3) 8:07 PM CST (1/3)
Length of Visible Light 9h 48m
Length of Day
8h 38m
Waxing Crescent, 8% of the Moon is Illuminated
Jan 3
Waxing Crescent
Jan 7
First Quarter
Jan 15
Full
Jan 23
Last Quarter
Jan 30
New

Hourly Weather History & Observations

Time (CST) Temp. Windchill Dew Point Humidity Pressure Visibility Wind Dir Wind Speed Gust Speed Precip Events Conditions
12:53 AM -11.9 °F -31.0 °F -17.0 °F 78% 30.25 in 10.0 mi SSE 10.4 mph - N/A   Mostly Cloudy
1:53 AM -9.0 °F -28.4 °F -14.1 °F 79% 30.21 in 10.0 mi South 11.5 mph - N/A   Overcast
2:53 AM -7.1 °F -29.1 °F -13.0 °F 75% 30.15 in 10.0 mi SSE 16.1 mph - N/A   Overcast
3:53 AM -6.0 °F -26.3 °F -11.0 °F 79% 30.09 in 10.0 mi SSE 13.8 mph - N/A   Overcast
4:53 AM -2.9 °F -25.0 °F -9.9 °F 72% 30.01 in 10.0 mi SSE 18.4 mph - N/A   Overcast
5:53 AM -0.9 °F -23.0 °F -8.0 °F 72% 29.96 in 10.0 mi SSE 19.6 mph - N/A   Overcast
6:08 AM -0.0 °F -19.4 °F -8.0 °F 69% 29.80 in 10.0 mi SSE 15.0 mph - N/A   Overcast
6:53 AM -0.0 °F -20.1 °F -6.0 °F 76% 29.90 in 10.0 mi SSE 16.1 mph - N/A   Overcast
7:53 AM 1.0 °F -20.9 °F -4.0 °F 79% 29.83 in 9.0 mi SSE 20.7 mph 27.6 mph N/A   Overcast
8:53 AM 1.9 °F -18.7 °F -2.0 °F 83% 29.78 in 6.0 mi South 18.4 mph 28.8 mph N/A   Overcast
9:53 AM 3.9 °F -16.6 °F -0.0 °F 84% 29.74 in 4.0 mi South 19.6 mph 27.6 mph N/A   Overcast
10:23 AM 5.0 °F -14.7 °F 1.0 °F 84% 29.59 in 4.0 mi South 18.4 mph 24.2 mph N/A   Overcast
10:53 AM 6.1 °F -12.2 °F 1.0 °F 80% 29.70 in 5.0 mi South 16.1 mph - N/A   Haze
11:49 AM 8.6 °F -11.0 °F 3.2 °F 79% 29.51 in 5.0 mi South 20.7 mph 27.6 mph N/A   Haze
11:53 AM 8.1 °F -11.7 °F 3.0 °F 80% 29.63 in 4.0 mi South 20.7 mph 27.6 mph N/A   Haze
12:41 PM 10.0 °F -9.1 °F 5.0 °F 80% 29.46 in 6.0 mi South 20.7 mph 26.5 mph N/A   Haze
12:53 PM 10.0 °F -8.6 °F 5.0 °F 80% 29.57 in 7.0 mi South 19.6 mph 25.3 mph N/A   Overcast
1:07 PM 10.9 °F -7.0 °F 6.1 °F 81% 29.44 in 3.0 mi South 18.4 mph - 0.00 in Snow Light Snow
1:34 PM 10.9 °F -5.9 °F 7.0 °F 84% 29.42 in 6.0 mi South 16.1 mph 24.2 mph 0.00 in   Overcast
1:53 PM 10.9 °F -7.0 °F 7.0 °F 84% 29.50 in 5.0 mi South 18.4 mph - 0.00 in   Overcast
2:53 PM 12.9 °F -0.9 °F 8.1 °F 81% 29.48 in 5.0 mi South 11.5 mph - 0.00 in   Haze
3:53 PM 14.0 °F -0.8 °F 10.0 °F 84% 29.46 in 4.0 mi South 13.8 mph - 0.00 in Snow Light Snow
4:53 PM 15.1 °F -0.6 °F 10.9 °F 84% 29.45 in 8.0 mi South 16.1 mph - 0.01 in   Overcast
5:53 PM 16.0 °F 2.9 °F 12.0 °F 84% 29.42 in 9.0 mi South 11.5 mph - 0.00 in   Overcast
6:04 PM 17.1 °F 4.3 °F 12.9 °F 84% 29.32 in 9.0 mi South 11.5 mph - N/A   Overcast
6:53 PM 18.0 °F 3.6 °F 14.0 °F 84% 29.40 in 9.0 mi South 15.0 mph - N/A   Overcast
7:53 PM 19.0 °F 6.8 °F 15.1 °F 85% 29.37 in 9.0 mi South 11.5 mph - N/A   Overcast
8:53 PM 19.9 °F 6.7 °F 16.0 °F 85% 29.37 in 8.0 mi SSW 13.8 mph - N/A   Overcast
9:44 PM 19.9 °F 12.1 °F 18.0 °F 92% 29.28 in 5.0 mi SSW 5.8 mph - 0.00 in Snow Light Snow
9:53 PM 19.9 °F 14.9 °F 18.0 °F 92% 29.37 in 5.0 mi SSW 3.5 mph - 0.00 in Snow Light Snow
10:32 PM 21.0 °F - 19.0 °F 92% 29.31 in 2.0 mi Calm Calm - 0.00 in Snow Light Snow
10:34 PM 21.0 °F - 19.0 °F 92% 29.31 in 1.8 mi Calm Calm - 0.00 in Snow Light Snow
10:45 PM 19.9 °F - 18.0 °F 92% 29.31 in 2.0 mi Calm Calm - 0.00 in Snow Light Snow
10:53 PM 19.9 °F - 18.0 °F 92% 29.41 in 2.5 mi Calm Calm - 0.00 in Snow Light Snow
11:04 PM 19.9 °F - 18.0 °F 92% 29.32 in 1.5 mi Calm Calm - 0.00 in Snow Light Snow
11:53 PM 19.9 °F 9.3 °F 18.0 °F 92% 29.41 in 2.5 mi North 9.2 mph - 0.01 in Snow Light Snow